Home   Weather   Plauen   Past weeks

Flag for Germany Past Weather in Plauen, Saxony, Germany — Yesterday and Last 2 Weeks

Now
27 °F

Ice fog.


Feels Like: 18 °F
Forecast: 22 / 32 °F
Wind: 8 mph from North

Location: Hof Airport

Current Time: Feb 20, 2018 at 8:47:28 pm

Latest Report: Feb 20, 2018 at 7:50 pm


Visibility: 2 mi

Pressure: 30.01 "Hg

Humidity: 86%

Dew Point: 23 °F

Location of PlauenLocation

Past Weather in Plauen — Graph

°F

Plauen Temperature Yesterday

Maximum temperature yesterday: 32 °F (at 1:50 pm)
Minimum temperature yesterday: 19 °F (at 6:50 am)
Average temperature yesterday: 28 °F

High & Low Weather Summary for the Past Weeks

 TemperatureHumidityPressure
High36 °F (Feb 14, 3:20 pm)100% (Feb 13, 8:50 am)30.30 "Hg (Feb 13, 8:50 am)
Low14 °F (Feb 6, 6:50 am)44% (Feb 14, 2:50 pm)29.59 "Hg (Feb 11, 12:50 pm)
Average28 °F79%29.99 "Hg
* Reported Feb 5 7:20 pm — Feb 20 7:50 pm, Plauen. Weather by CustomWeather, © 2018

Note: Actual official high and low records may vary slightly from our data, if they occured in-between our weather recording intervals... More about our weather records

Advertising

Plauen Weather History for the Previous 24 Hours

Scroll right to see more
 ConditionsComfort  
Time TempWeatherWind HumidityBarometerVisibility
7:50 pm
Tue, Feb 20
27 °FIce fog.8 mph86%30.01 "Hg2 mi
7:20 pm27 °FLight snow. Ice fog.7 mph86%30.01 "Hg2 mi
6:50 pm27 °FLight snow. Ice fog.8 mph86%30.01 "Hg2 mi
6:20 pm27 °FLight snow. Ice fog.8 mph80%29.98 "Hg2 mi
5:50 pm27 °FLight snow. Ice fog.8 mph80%29.98 "Hg2 mi
5:20 pm27 °FLight snow. Ice fog.7 mph80%29.98 "Hg3 mi
4:50 pm27 °FLight snow. Ice fog.5 mph74%29.98 "Hg3 mi
4:20 pm28 °FLight snow. Ice fog.No wind69%29.95 "Hg3 mi
3:50 pm28 °FOvercast.3 mph69%29.95 "Hg6 mi
3:20 pm28 °FMostly cloudy.3 mph69%29.95 "Hg6 mi
2:50 pm28 °FOvercast.6 mph69%29.95 "Hg6 mi
2:20 pm28 °FOvercast.6 mph69%29.95 "Hg6 mi
1:50 pm27 °FOvercast.2 mph74%29.95 "HgN/A
1:20 pm27 °FOvercast.5 mph74%29.95 "HgN/A
12:50 pm27 °FOvercast.3 mph74%29.95 "Hg6 mi
12:20 pm27 °FOvercast.5 mph74%29.95 "HgN/A
11:50 am27 °FOvercast.1 mph74%29.95 "Hg6 mi
11:20 am25 °FOvercast.5 mph80%29.95 "Hg6 mi
10:50 am25 °FOvercast.6 mph80%29.95 "Hg5 mi
10:20 am25 °FMostly cloudy.6 mph80%29.95 "Hg4 mi
9:50 am25 °FIce fog.3 mph80%29.95 "Hg3 mi
9:20 am23 °FIce fog.No wind86%29.95 "Hg3 mi
8:50 am23 °FIce fog.No wind93%29.95 "Hg2 mi
8:20 am23 °FIce fog.No wind86%29.95 "Hg2 mi
7:50 am21 °FIce fog.No wind93%29.95 "Hg2 mi
6:50 am23 °FIce fog.No wind93%29.95 "Hg2 mi
Weather by CustomWeather, © 2018

See weather overview